Weather in Periksa

Russia / Tambov Oblast     52°24′23″N   41°46′12″E
temp.,
°C
wind,
m/s
gust,
m/s
humid.,
%
clouds,
%
prec.,
mm/h
press.,
hPa
HPBL,
m
6 march, sat
sat600:00−8wnw229381 0.0 101521
03:00−9wnw129589 0.0 101621
06:00−10w019691 0.0 101521
09:00−7wsw009496 0.0 101663
12:00−4w1290100 0.1 1016313
15:00−3wnw3492100 0.6 1014413
18:00−6nw479694 0.6 1015282
21:00−10nw489694 0.9 1016171
7 march, sun
sun700:00−13wnw359522 0.0 101676
03:00−13w359511 0.0 101783
06:00−14sw469642 0.0 1016109
09:00−10sw6138850 0.0 1014414
12:00−5sw91481100 0.0 1011922
15:00−3sw101776100 0.0 10061165
18:00−3sw91879100 0.0 10021167
21:00−2wsw101794100 1.4 10011074
8 march, mon
mon800:00−6nnw41094100 1.9 1001424
03:00−9wsw498881 2.0 1001141
06:00−7wsw5149123 0.1 1001451
09:00−5wsw7138617 0.1 1002766
12:00−4w9147884 0.2 10031721
15:00−6w9148189 0.3 10061281
18:00−8w5128794 0.1 1008532
21:00−12w489361 0.1 1011160
9 march, tue
tue900:00−13w369518 0.0 1012116
03:00−14w339738 0.0 101351
06:00−15wnw239878 0.0 101425
09:00−12nw229481 0.1 1015146
12:00−8nnw238294 0.0 1015548
15:00−8n238797 0.1 1016426
18:00−11nnw3494100 0.3 1017154
21:00−13nnw3694100 0.3 1019182
10 march, wed
wed1000:00−13nnw3695100 0.0 1020179
03:00−17nnw349897 0.0 102274
06:00−20nw339729 0.0 102360
09:00−18nw369115 0.0 1025273
12:00−14nw34779 0.0 1026559
15:00−13w337854 0.0 1025532
18:00−15wsw238993 0.0 102465
21:00−15se129697 0.3 102542